SCP
0 0 0 0 0 0 0 0 0 0 0 0 0 0 0 0 0 0 0 0 0 0 0 0 0 0 0 0 0 0 0 0
0 0 0 0 0 0 0 0 0 0 0 0 0 0 0 0 0 0 0 0 0 0 0 0 0 0 0 0 0 0 0 0
0 0 0 0 0 0 0 0 0 0 0 0 0 0 0 0 0 0 0 0 0 0 0 0 0 0 0 0 0 0 0 0
0 0 0 0 0 0 0 0 0 0 0 0 0 0 0 0 0 0 0 0 0 0 0 0 0 0 0 0 0 0 0 0
0 0 0 0 0 0 0 0 0 0 0 0 0 0 0 0 0 0 0 0 0 0 0 0 0 0 0 0 0 0 0 0
0 0 0 0 0 0 0 0 0 0 0 0 0 0 0 0 0 0 0 0 0 0 0 0 0 0 0 0 0 0 0 0
0 0 0 0 0 0 0 0 0 0 0 0 0 0 0 0 0 0 0 0 0 0 0 0 0 0 0 0 0 0 0 0
0 0 0 0 0 0 0 -0 0 0 0 0 0 0 0 0 0 0 0 0 0 0 0 0 0 0 0 0 0 0 0 0
0 -0 0 -0 0 0 0 0 0 0 0 0 0 0 0 0 0 0 0 0 0 0 0 0 0 0 0 0 0 0 0 0
-0 -0 0 0 0 0 0 0 0 0 0 0 0 0 0 0 0 0 0 0 0 0 0 0 0 0 0 0 0 0 0 0
0 0 0 0 0 0 0 0 0 0 0 0 0 0 0 0 0 0 0 0 0 0 0 0 0 0 0 0 0 0 0 0
0 0 0 0 0 0 0 0 0 0 0 0 0 0 0 0 0 0 0 0 0 0 0 0 0 0 0 0 0 0 0 0
0 0 0 0 0 0 0 0 0 0 0 0 0 0 0 0 0 0 0 0 0 0 0 0 0 0 0 0 0 0 0 0
0 0 0 0 0 0 0 0 0 0 0 0 0 0 0 0 0 0 0 0 0 0 0 0 0 0 0 0 0 0 0 0
0 0 0 0 0 0 0 0 0 0 0 0 0 0 0 0 0 0 0 0 0 0 0 0 0 0 0 0 0 0 0 0
0 0 0 0 0 0 0 0 0 0 0 0 0 0 0 0 0 0 0 0 0 0 0 0 0 0 0 0 0 0 0 0
0 0 0 0 0 0 0 0 0 0 0 0 0 0 0 0 0 0 0 0 0 0 0 0 0 0 0 0 0 0 0 0
0 0 0 0 0 0 0 0 0 0 0 0 0 0 0 0 0 0 0 0 0 0 0 0 0 0 0 0 0 0 0 0
0 0 0 0 0 0 0 0 0 0 0 0 0 0 0 0 0 0 0 0 0 0 0 0 0 0 0 0 0 0 0 0
0 0 0 0 0 0 0 0 0 0 0 0 0 0 0 0 0 0 0 0 0 0 0 0 0 0 0 0 0 0 0 0
Wind_Speed_500mb
23 26 28 25 19 19 24 19 25 15 26 30 39 39 40 32 25 24 22 26 40 41 27 37 32 33 37 32 26 23 20 15
30 30 30 29 25 27 18 16 16 16 13 14 19 18 17 19 24 27 26 26 25 27 33 33 34 43 35 29 19 14 11 13
27 26 29 29 30 30 28 20 20 20 19 25 32 28 27 24 22 18 16 13 9 6 2 6 6 8 8 9 7 6 4 4
16 20 20 24 27 27 28 26 28 25 27 29 25 24 18 12 10 8 9 7 4 1 4 6 2 5 9 7 5 6 6 7
10 10 11 12 13 14 14 12 11 8 7 12 14 11 4 5 9 13 14 18 15 13 16 18 17 13 10 8 9 8 7 12
10 11 10 11 11 11 9 9 11 10 10 6 5 8 7 5 5 3 5 6 6 10 12 12 13 11 10 9 11 11 10 8
13 10 11 11 11 12 12 11 10 5 7 8 10 12 9 11 14 11 12 11 12 12 12 12 15 14 14 13 11 9 10 8
15 13 13 12 14 15 17 15 15 13 15 15 15 15 15 16 18 17 16 15 16 16 17 16 15 17 13 12 12 11 11 9
14 12 13 13 15 15 17 16 18 17 18 16 16 14 14 13 13 13 13 13 12 12 13 13 13 13 12 10 10 9 7 5
15 15 14 16 16 16 15 15 16 15 16 16 15 13 12 10 10 11 10 12 11 10 12 13 13 11 10 9 7 4 3 2
15 15 15 15 16 15 13 13 13 14 14 13 12 12 12 11 11 11 10 8 10 8 8 10 11 11 9 7 5 4 0 2
15 13 14 13 15 13 11 12 12 13 12 11 11 10 10 9 8 8 6 6 7 8 8 8 9 8 7 5 5 4 4 7
14 12 10 11 12 11 10 11 11 11 9 8 6 6 6 4 3 2 2 4 5 6 7 7 7 8 8 8 9 10 11 13
13 10 8 5 5 5 7 8 9 8 6 5 3 3 2 3 4 5 5 7 8 10 11 12 12 14 15 14 14 16 17 20
13 10 6 3 3 5 6 7 4 3 3 4 3 5 7 8 8 10 10 12 14 15 15 18 19 18 19 19 19 22 24 28
12 13 12 10 8 8 9 10 11 11 9 6 6 10 12 11 11 13 17 19 20 22 24 25 24 25 30 28 28 30 32 34
13 14 14 14 13 13 14 15 17 19 21 22 23 21 20 19 21 21 22 23 24 25 26 30 34 33 34 35 37 38 40 41
18 19 21 22 20 21 21 21 21 21 22 29 32 32 32 28 26 25 27 30 33 36 37 38 38 40 36 41 40 42 45 48
31 34 35 35 29 35 38 38 36 36 35 35 33 36 38 37 36 32 38 42 41 42 44 43 40 39 42 45 46 47 46 48
35 35 37 38 35 43 48 47 46 44 42 40 40 40 41 42 41 40 43 43 45 46 44 39 39 40 42 43 48 48 49 48
Wind_Direction_500mb
111 107 104 114 112 115 131 157 155 173 190 161 163 179 186 170 176 178 194 187 196 188 222 242 233 237 261 265 260 234 224 251
105 104 102 101 104 99 99 111 124 130 125 139 125 147 146 170 180 184 197 203 218 219 218 226 232 243 245 220 207 222 264 270
107 109 105 105 101 97 98 97 112 130 117 106 107 111 98 81 79 88 95 86 95 104 256 203 179 181 194 231 204 231 259 238
124 119 119 116 111 107 101 97 91 99 110 104 93 83 85 89 87 113 95 102 191 214 339 324 285 203 225 229 214 208 236 238
150 136 133 130 134 141 140 134 118 114 78 72 67 62 49 324 306 300 285 274 282 292 262 256 249 240 214 213 237 234 197 181
121 114 106 119 126 132 138 153 171 191 210 224 289 327 329 272 274 226 187 172 171 184 184 194 203 226 221 218 191 173 163 200
95 95 92 93 102 111 114 102 89 105 144 162 159 141 138 139 139 139 144 135 137 146 151 166 161 138 140 140 151 161 158 148
85 87 95 97 97 93 93 98 103 109 103 105 105 111 125 128 132 135 133 135 133 135 132 138 149 139 144 147 144 139 135 129
101 105 103 98 91 96 103 109 106 105 104 106 109 113 116 121 126 125 133 127 130 133 136 148 151 139 140 139 125 122 116 99
110 107 103 99 94 91 93 93 95 104 106 111 112 110 115 115 106 105 110 118 123 131 140 139 142 139 137 133 126 116 100 83
94 94 94 95 95 93 96 102 104 98 94 99 103 101 96 93 94 96 100 112 118 130 142 144 145 144 148 154 163 161 165 343
88 87 94 96 94 92 93 84 77 77 81 86 89 92 90 89 96 101 117 133 145 153 162 163 163 172 181 194 224 252 278 303
93 88 85 89 94 95 88 87 88 87 88 87 87 87 86 81 82 123 165 181 177 168 178 197 213 226 239 247 258 271 278 284
82 86 88 92 114 124 111 103 92 91 82 74 64 47 346 270 243 225 227 227 215 210 221 231 237 240 245 256 267 275 284 287
39 39 46 83 188 206 204 176 147 101 56 24 331 322 306 285 269 259 244 242 242 245 254 255 256 262 267 264 270 273 275 280
354 342 342 339 322 302 269 257 251 247 250 271 291 295 292 290 281 272 266 264 259 256 261 267 264 261 259 264 265 269 276 284
344 336 325 314 310 302 297 289 277 270 262 255 254 252 262 271 272 280 274 277 279 278 279 278 275 265 268 275 275 278 282 286
310 307 298 290 284 279 281 285 289 290 277 265 259 258 259 257 264 268 269 278 284 283 283 287 286 275 268 272 276 278 282 286
294 296 287 276 271 274 274 274 278 279 278 277 274 264 257 257 254 260 274 282 287 289 285 285 281 270 264 265 270 272 278 283
292 286 281 278 275 268 271 274 274 273 273 273 270 266 262 258 255 264 266 269 275 277 280 280 270 265 264 266 272 276 274 277
Wind_Speed_850mb
23 26 28 25 19 19 24 19 25 15 26 30 39 39 40 32 25 24 22 26 40 41 27 37 32 33 37 32 26 23 20 15
30 30 30 29 25 27 18 16 16 16 13 14 19 18 17 19 24 27 26 26 25 27 33 33 34 43 35 29 19 14 11 13
27 26 29 29 30 30 28 20 20 20 19 25 32 28 27 24 22 18 16 13 9 6 2 6 6 8 8 9 7 6 4 4
16 20 20 24 27 27 28 26 28 25 27 29 25 24 18 12 10 8 9 7 4 1 4 6 2 5 9 7 5 6 6 7
10 10 11 12 13 14 14 12 11 8 7 12 14 11 4 5 9 13 14 18 15 13 16 18 17 13 10 8 9 8 7 12
10 11 10 11 11 11 9 9 11 10 10 6 5 8 7 5 5 3 5 6 6 10 12 12 13 11 10 9 11 11 10 8
13 10 11 11 11 12 12 11 10 5 7 8 10 12 9 11 14 11 12 11 12 12 12 12 15 14 14 13 11 9 10 8
15 13 13 12 14 15 17 15 15 13 15 15 15 15 15 16 18 17 16 15 16 16 17 16 15 17 13 12 12 11 11 9
14 12 13 13 15 15 17 16 18 17 18 16 16 14 14 13 13 13 13 13 12 12 13 13 13 13 12 10 10 9 7 5
15 15 14 16 16 16 15 15 16 15 16 16 15 13 12 10 10 11 10 12 11 10 12 13 13 11 10 9 7 4 3 2
15 15 15 15 16 15 13 13 13 14 14 13 12 12 12 11 11 11 10 8 10 8 8 10 11 11 9 7 5 4 0 2
15 13 14 13 15 13 11 12 12 13 12 11 11 10 10 9 8 8 6 6 7 8 8 8 9 8 7 5 5 4 4 7
14 12 10 11 12 11 10 11 11 11 9 8 6 6 6 4 3 2 2 4 5 6 7 7 7 8 8 8 9 10 11 13
13 10 8 5 5 5 7 8 9 8 6 5 3 3 2 3 4 5 5 7 8 10 11 12 12 14 15 14 14 16 17 20
13 10 6 3 3 5 6 7 4 3 3 4 3 5 7 8 8 10 10 12 14 15 15 18 19 18 19 19 19 22 24 28
12 13 12 10 8 8 9 10 11 11 9 6 6 10 12 11 11 13 17 19 20 22 24 25 24 25 30 28 28 30 32 34
13 14 14 14 13 13 14 15 17 19 21 22 23 21 20 19 21 21 22 23 24 25 26 30 34 33 34 35 37 38 40 41
18 19 21 22 20 21 21 21 21 21 22 29 32 32 32 28 26 25 27 30 33 36 37 38 38 40 36 41 40 42 45 48
31 34 35 35 29 35 38 38 36 36 35 35 33 36 38 37 36 32 38 42 41 42 44 43 40 39 42 45 46 47 46 48
35 35 37 38 35 43 48 47 46 44 42 40 40 40 41 42 41 40 43 43 45 46 44 39 39 40 42 43 48 48 49 48
Wind_Direction_850mb
111 107 104 114 112 115 131 157 155 173 190 161 163 179 186 170 176 178 194 187 196 188 222 242 233 237 261 265 260 234 224 251
105 104 102 101 104 99 99 111 124 130 125 139 125 147 146 170 180 184 197 203 218 219 218 226 232 243 245 220 207 222 264 270
107 109 105 105 101 97 98 97 112 130 117 106 107 111 98 81 79 88 95 86 95 104 256 203 179 181 194 231 204 231 259 238
124 119 119 116 111 107 101 97 91 99 110 104 93 83 85 89 87 113 95 102 191 214 339 324 285 203 225 229 214 208 236 238
150 136 133 130 134 141 140 134 118 114 78 72 67 62 49 324 306 300 285 274 282 292 262 256 249 240 214 213 237 234 197 181
121 114 106 119 126 132 138 153 171 191 210 224 289 327 329 272 274 226 187 172 171 184 184 194 203 226 221 218 191 173 163 200
95 95 92 93 102 111 114 102 89 105 144 162 159 141 138 139 139 139 144 135 137 146 151 166 161 138 140 140 151 161 158 148
85 87 95 97 97 93 93 98 103 109 103 105 105 111 125 128 132 135 133 135 133 135 132 138 149 139 144 147 144 139 135 129
101 105 103 98 91 96 103 109 106 105 104 106 109 113 116 121 126 125 133 127 130 133 136 148 151 139 140 139 125 122 116 99
110 107 103 99 94 91 93 93 95 104 106 111 112 110 115 115 106 105 110 118 123 131 140 139 142 139 137 133 126 116 100 83
94 94 94 95 95 93 96 102 104 98 94 99 103 101 96 93 94 96 100 112 118 130 142 144 145 144 148 154 163 161 165 343
88 87 94 96 94 92 93 84 77 77 81 86 89 92 90 89 96 101 117 133 145 153 162 163 163 172 181 194 224 252 278 303
93 88 85 89 94 95 88 87 88 87 88 87 87 87 86 81 82 123 165 181 177 168 178 197 213 226 239 247 258 271 278 284
82 86 88 92 114 124 111 103 92 91 82 74 64 47 346 270 243 225 227 227 215 210 221 231 237 240 245 256 267 275 284 287
39 39 46 83 188 206 204 176 147 101 56 24 331 322 306 285 269 259 244 242 242 245 254 255 256 262 267 264 270 273 275 280
354 342 342 339 322 302 269 257 251 247 250 271 291 295 292 290 281 272 266 264 259 256 261 267 264 261 259 264 265 269 276 284
344 336 325 314 310 302 297 289 277 270 262 255 254 252 262 271 272 280 274 277 279 278 279 278 275 265 268 275 275 278 282 286
310 307 298 290 284 279 281 285 289 290 277 265 259 258 259 257 264 268 269 278 284 283 283 287 286 275 268 272 276 278 282 286
294 296 287 276 271 274 274 274 278 279 278 277 274 264 257 257 254 260 274 282 287 289 285 285 281 270 264 265 270 272 278 283
292 286 281 278 275 268 271 274 274 273 273 273 270 266 262 258 255 264 266 269 275 277 280 280 270 265 264 266 272 276 274 277